Location: Newark
(55.1520°N, 2.9990°W)
Time: 04:07:55
(UTC+00:00)

ISS - Visible Passes

Search period start: 25 September 2020 00:00
Search period end: 05 October 2020 00:00
Orbit: 419 x 420 km, 51.6° (Epoch: 25 September)

Date Brightness Start Highest point End Pass type
(mag) Time Alt. Az. Time Alt. Az. Time Alt. Az.
25 Sep -3.0 18:56:20 10° WSW 18:59:32 40° SSE 19:02:10 14° ESE visible
25 Sep -2.5 20:32:48 10° W 20:35:07 33° SW 20:35:07 33° SW visible
26 Sep -3.2 19:45:28 10° WSW 19:48:42 45° S 19:49:29 37° SE visible
26 Sep -0.7 21:22:14 10° W 21:22:26 11° W 21:22:26 11° W visible
27 Sep -3.2 18:58:06 10° WSW 19:01:22 46° S 19:03:50 16° ESE visible
27 Sep -2.0 20:34:46 10° W 20:36:47 26° SW 20:36:47 26° SW visible
28 Sep -2.9 19:47:21 10° W 19:50:31 37° SSW 19:51:08 34° SSE visible
29 Sep -3.0 18:59:57 10° W 19:03:10 42° S 19:05:29 17° ESE visible
29 Sep -1.4 20:36:54 10° WSW 20:38:26 18° SW 20:38:26 18° SW visible
30 Sep -2.2 19:49:20 10° W 19:52:12 26° SSW 19:52:48 24° S visible
01 Oct -2.4 19:01:50 10° W 19:04:53 31° SSW 19:07:12 15° SE visible
01 Oct -0.8 20:39:49 10° WSW 20:40:09 11° SW 20:40:09 11° SW visible
02 Oct -1.4 19:51:38 10° WSW 19:53:43 15° SSW 19:54:36 14° SSW visible
03 Oct -1.6 19:03:52 10° WSW 19:06:27 20° SSW 19:09:00 10° SSE visible
04 Oct -1.8 18:16:16 10° W 18:19:07 26° SSW 18:21:59 10° SE visible
